Weather in Burgun-Madzhary

Russia / Stavropol Krai     44°49′45″N   44°28′39″E
temp.,
°C
wind,
m/s
gust,
m/s
humid.,
%
clouds,
%
prec.,
mm/h
press.,
hPa
HPBL,
m
14 june, mon
mon1400:00+17w338984 0.0 101243
03:00+17w339090 0.0 101256
06:00+18w34854 0.0 1012160
09:00+23nw23650 0.0 1012829
12:00+27n33480 0.0 10111690
15:00+29nne43405 0.0 10101994
18:00+28ne34461 0.0 1010284
21:00+22e47600 0.0 1010111
15 june, tue
tue1500:00+20e366993 0.0 1009102
03:00+20e3672100 0.0 1009131
06:00+20ese2481100 1.0 1009142
09:00+24ese3364100 1.2 1009605
12:00+27e224976 0.0 10091244
15:00+29e224327 0.0 10091888
18:00+29e224540 0.0 10091385
21:00+23ene34662 0.3 101066
16 june, wed
wed1600:00+22ese22660 0.1 101016
03:00+21ese23750 0.1 101021
06:00+22se35700 0.0 1010154
09:00+27ese57510 0.0 1009918
12:00+30ese68390 0.0 10081529
15:00+32e78350 0.0 10071838
18:00+29e69420 0.0 1008512
21:00+24e511550 0.0 1009263
17 june, thu
thu1700:00+21e38711 0.2 1008171
03:00+20ene3679100 0.3 1008118
06:00+22ne3975100 0.0 1007336
09:00+28e69495 0.0 10071090
12:00+31e47369 1.3 10071451
15:00+32ese243199 2.8 10081117
18:00+26w81161100 0.2 1009385
21:00+23wnw81373100 0.2 1011372
18 june, fri
fri1800:00+22nw81474100 0.0 1012438
03:00+22nw7117197 0.0 1013358
06:00+22nnw6106374 0.0 1015642
09:00+25nne66505 0.0 10161224
12:00+29nne674439 0.0 10161833
15:00+29ne773961 0.0 10171820
18:00+28ne584139 0.0 1017458
21:00+24ne4113948 0.0 1019270